Regional Weather Roundup
Issued by NWS

Home | Current Version | Previous Version | Graphics & Text | Print | Product List | Glossary On
Versions: 1 2 3 4 5 6 7 8 9 10 11 12 13 14 15 16 17 18 19 20 21 22 23 24 25 26 27
000
ASUS45 KSLC 232010
RWRUT

UTAH REGIONAL WEATHER ROUNDUP
NATIONAL WEATHER SERVICE SALT LAKE CITY UT
200 PM MDT WED APR 23 2014

UTZ001>011-023>025-232100-

NORTHERN UTAH

CITY           SKY/WX    TMP DP  RH WIND       PRES   REMARKS
HILL AFB       PTSUNNY   47  24  40 W8        30.04F
LOGAN          MOSUNNY   47  23  38 W10G20    30.01F
OGDEN          MOSUNNY   50  21  32 NW9       30.03F
PROVO AIRPORT  MOSUNNY   52  19  28 W15       30.04F
SALT LAKE CITY MOSUNNY   48  23  37 VRB6      30.05S
VERNAL         CLOUDY    50  21  32 N14       29.90S
WENDOVER       PTSUNNY   52  14  22 SW9       30.03F
HEBER CITY     MOSUNNY   46  19  34 N15G22    30.01S
WEST JORDAN    SUNNY     48  25  40 NW13G22   30.06R

$$

UTZ012>022-026-027-232100-

SOUTHERN UTAH

CITY           SKY/WX    TMP DP  RH WIND       PRES   REMARKS
BRYCE CANYON   SUNNY     46  15  28 W17       30.00S
CEDAR CITY     SUNNY     54   9  16 N17       29.99S
MILFORD        MOSUNNY   54  15  21 N15G21    30.01F
MOAB/CYNLANDS  SUNNY     57   9  14 W24G32    29.90R
PRICE          PTSUNNY   50   5  16 NW14G22   29.95F
ST GEORGE      PTCLDY    66  19  16 SW7       29.94F
KANAB            N/A     61   7  11 CALM      29.96

$$

REGIONAL REPORTS     COLORADO/ARIZONA

CITY           SKY/WX    TMP DP  RH WIND       PRES   REMARKS
CRAIG, CO      CLOUDY    45  28  51 W12       29.90F
GRAND JUNCTION CLOUDY    57  17  21 W17G26    29.86R
RIFLE          PTSUNNY   58  17  20 W22G33    29.81F
MONTROSE       PTSUNNY   57  17  21 NW18      29.84S
CORTEZ         SUNNY     59  10  14 W17G29    29.87R
PAGE, AZ       MOSUNNY   64  17  16 NW8       29.91F
GRAND CANYON   MOSUNNY   56   9  15 W9G21     29.98F
KINGMAN        SUNNY     70   7   8 N17G29    29.95F
FLAGSTAFF      PTSUNNY   58   5  12 W8G21     29.98R

$$

REGIONAL REPORTS    NEVADA/IDAHO/WYOMING

CITY           SKY/WX    TMP DP  RH WIND       PRES   REMARKS
LAS VEGAS, NV  SUNNY     72  11   9 N9G20     29.90F
ELY            SUNNY     47  12  24 E9        30.04F
ELKO           PTSUNNY   47  21  35 W14       30.05F
POCATELLO, ID  MOSUNNY   50  24  36 W24       29.99S
BURLEY         PTSUNNY   49  26  41 W13G22    30.01F
EVANSTON, WY   MOSUNNY   37  15  40 W17G23    30.00S WCI  27
ROCK SPRINGS   MOSUNNY   45   8  22 W25G38    29.92R

$$



USA.gov is the U.S. government's official web portal to all federal, state and local government web resources and services.